FREGAT DEB (TANK), 41108

Orbit data source: Space-Track

FREGAT DEB (TANK), 41108 is space debris in LEO originally from a launch on Fri, 11 Dec 2015 UTC launched from the Tyuratam Missile And Space Complex (TTMTR). Debris objects in space refer to the collection of defunct objects orbiting the Earth. Examples of debris include non-operational satellites, rocket bodies, and fragments generated from explosions, collisions, or faulty payload assembly.

Loading next visibility...
Identifier
41108, 2015-074D
Orbit
LEO
Last TLE update
6 hours ago
Origin
Manufacturer
Lavochkin
Mission
Spacecraft
Bus & Motor
FREGAT SBB, Unknown motor
Mass
360 kg wet, 360 kg dry
Launch date (UTC)
2015-12-11 (10 years ago)
Launch vehicle
Unknown
Launch site
Tyuratam Missile And Space Complex (TTMTR)
Object type
Payload
Rocket body
Debris
Shape & HBR
Torus, 3.9 m
Radar Cross Section
6.703 m², Large (>1 m²)

Expand to show TLE details & history

TLE from 6 hours ago
0 FREGAT DEB (TANK)
1 41108U 15074D   25183.59734393  .00030426  53578-5  47150-3 0  9991
2 41108  50.3139 305.1823 1288330 314.4576  35.7664 13.05837590403317
Epoch: 2025-07-02T14:20Z
TLE epoch observation values (Epoch: 2025-07-02T14:20:10.515Z)
Latitude
0.00001°
Longitude
169.26234°
Altitude
494.439 km
Speed
7.982 km/s
True Right ascension
20h 20m 43s
True Declination
0° 00' 00"
Sunlit
Object was in full shadow at epoch
Visualization orbit readout
Latitude
43.51287°
Longitude
-139.96859°
Altitude
1,428.388 km
Speed
7.064 km/s
Apparent Right ascension
21h 57m 27s
Apparent Declination
7° 52' 48"
Sunlit
Object is in daylight
Visualization observer readout
Local Sidereal Time
07:52:42
Azimuth
321.671° NNW
Elevation
-34.191°
Doppler factor
1
Orbital elements
Apogee altitude
2,221.434 km
Perigee altitude
258.507 km
Semi-major axis
7,618.107 km
Eccentricity
0.12883
Inclination
50.3139°
RAAN
305.1823°
Arg. of periapsis
314.4576°
True anomaly
Unknown
Mean anomaly
35.7664°
Eccentric anomaly
Unknown
Mean motion
3.26417 °/min
Orbital period
110.29 mins
BSTAR
0.0004715
Loading maneuver chart data...
Loading SW <> Apogee altitude chart data...
Loading historical data...
Loading historical data...
Loading historical data...
Loading historical data...
Loading historical data...
Loading historical data...
Loading historical data...

FREGAT DEB (TANK) Visibility forecast

Observer location: undefined°, undefined°

Span
Click to sort rows by Start time (UTC) header in descending order
Start Az.
Max El. time (UTC)
Max El. Az.
Max El.
End time (UTC)
End Az.
16 mins2025-07-02 20:30:43.000Z283.904° WNW2025-07-02 20:38:43.000Z246.735° WSW19.357°2025-07-02 20:46:43.000Z205.977° SW
13 mins2025-07-03 10:42:43.000Z213.913° SW2025-07-03 10:46:43.000Z140.174° SSE42.953°2025-07-03 10:55:43.000Z57.733° ENE
17 mins2025-07-03 12:37:43.000Z273.368° WNW2025-07-03 12:43:43.000Z352.835° N39.29°2025-07-03 12:54:43.000Z59.978° ENE
20 mins2025-07-03 14:33:43.000Z298.633° NW2025-07-03 14:41:43.000Z9.329° NNE37.459°2025-07-03 14:53:43.000Z79.956° E
23 mins2025-07-03 16:29:43.000Z305.08° NW2025-07-03 16:39:43.000Z20.187° NNE43.832°2025-07-03 16:52:43.000Z113.845° SE
22 mins2025-07-03 18:26:43.000Z297.727° NW2025-07-03 18:36:43.000Z233° WSW39.824°2025-07-03 18:48:43.000Z156.318° SSE
|